EW6887 Weather Reports


time (UTC)temp
C
wind
direction
speed
KPH
gust
KPH
rain 1hr
cm
rain 24hr
cm
rain mn
cm
humidity
%
barometer
mb
20260506180013 15 252 0.0 0.0 0.00 0.00 0.00 82 1002.7
20260506174507 15 246 0.0 0.0 0.00 0.00 0.00 82 1002.4
20260506173118 15 243 0.0 0.0 0.00 0.00 0.00 83 1002.7
20260506171556 15 225 0.0 0.0 0.00 0.00 0.00 84 1002.6
20260506170050 15 245 0.0 0.0 0.00 0.00 0.00 84 1002.7
20260506164539 15 247 0.0 0.0 0.00 0.00 0.00 83 1003.2
20260506163114 16 197 0.0 0.0 0.00 0.00 0.00 81 1003.3
20260506161557 16 169 0.0 0.0 0.00 0.00 0.00 78 1002.7
20260506160038 17 209 0.0 0.0 0.00 0.00 0.00 72 1002.6
20260506154536 17 219 0.0 0.0 0.00 0.00 0.00 71 1003.0
20260506153020 18 176 0.0 0.0 0.00 0.00 0.00 67 1003.1
20260506151511 18 176 0.0 0.0 0.00 0.00 0.00 65 1003.3
20260506150059 18 209 0.0 0.0 0.00 0.00 0.00 61 1003.5
20260506144548 21 164 0.0 0.0 0.00 0.00 0.00 52 1003.6
20260506143042 21 331 0.0 0.0 0.00 0.00 0.00 47 1003.5
20260506141533 21 14 0.0 0.0 0.00 0.00 0.00 48 1003.5
20260506140123 21 69 0.0 0.0 0.00 0.00 0.00 47 1003.6
20260506134515 21 55 0.0 0.0 0.00 0.00 0.00 47 1003.7
20260506133006 21 13 0.0 0.0 0.00 0.00 0.00 46 1004.0
20260506131602 22 5 0.0 0.0 0.00 0.00 0.00 44 1004.2
20260506130053 22 79 0.0 0.0 0.00 0.00 0.00 44 1004.4
20260506124550 22 9 0.0 0.0 0.00 0.00 0.00 46 1004.6
20260506123048 22 124 0.0 0.0 0.00 0.00 0.00 47 1004.7
20260506121542 21 24 0.0 0.0 0.00 0.00 0.00 48 1004.7
20260506120005 21 25 0.0 0.0 0.00 0.00 0.00 48 1004.8
20260506114621 22 40 0.0 0.0 0.00 0.00 0.00 47 1005.0
20260506113053 21 19 0.0 0.0 0.00 0.00 0.00 49 1005.2
20260506111553 21 65 0.0 0.0 0.00 0.00 0.00 51 1005.2
20260506110050 20 83 0.0 0.0 0.00 0.00 0.00 51 1005.4
20260506104545 20 71 0.0 0.0 0.00 0.00 0.00 52 1005.6
20260506103036 20 102 0.0 0.0 0.00 0.00 0.00 53 1005.6
20260506101600 19 109 0.0 0.0 0.00 0.00 0.00 55 1005.7
20260506100053 19 52 0.0 0.0 0.00 0.00 0.00 55 1005.8
20260506094547 19 65 0.0 0.0 0.00 0.00 0.00 57 1005.8
20260506093101 18 107 0.0 0.0 0.00 0.00 0.00 59 1005.7
20260506091533 17 62 0.0 0.0 0.00 0.00 0.00 65 1005.8
20260506090025 17 360 0.0 0.0 0.00 0.00 0.00 62 1005.7
20260506084517 17 5 0.0 0.0 0.00 0.00 0.00 64 1005.6
20260506083008 17 57 0.0 0.0 0.00 0.00 0.00 67 1005.7
20260506081507 16 65 0.0 0.0 0.00 0.00 0.00 67 1005.7
20260506080111 16 360 0.0 0.0 0.00 0.00 0.00 67 1005.7
20260506073046 15 61 0.0 0.0 0.00 0.00 0.00 75 1005.7
20260506071539 15 70 0.0 0.0 0.00 0.00 0.00 78 1005.6
20260506061508 13 101 0.0 0.0 0.00 0.00 0.00 87 1005.5
20260506044521 12 10 0.0 0.0 0.00 0.00 0.00 91 1005.0
20260506043114 12 11 0.0 0.0 0.00 0.00 0.00 90 1004.9
20260506041505 12 59 0.0 0.0 0.00 0.00 0.00 90 1004.7
20260506034550 12 82 0.0 0.0 0.00 0.00 0.00 88 1004.6
20260506033043 13 38 0.0 0.0 0.00 0.00 0.00 85 1004.6
20260506031533 13 57 0.0 0.0 0.00 0.00 0.00 81 1004.4
20260506030025 13 207 0.0 0.0 0.00 0.00 0.00 79 1004.3
20260506024549 13 217 0.0 0.0 0.00 0.00 0.00 78 1003.9
20260506023052 13 355 0.0 0.0 0.00 0.00 0.00 77 1003.8
20260506021529 13 38 0.0 0.0 0.00 0.00 0.00 74 1004.0
20260506020035 14 250 0.0 0.0 0.00 0.00 0.00 70 1003.6
20260506014510 15 46 0.0 0.0 0.00 0.00 0.00 66 1004.0
20260506013005 15 78 0.0 0.0 0.00 0.00 0.00 65 1004.0
20260506011559 15 338 0.0 0.0 0.00 0.00 0.00 64 1003.9
20260506010022 15 338 0.0 0.0 0.00 0.00 0.00 64 1003.9
20260506004521 15 324 0.0 0.0 0.00 0.00 0.00 63 1003.8
20260506003002 15 342 0.0 0.0 0.00 0.00 0.00 63 1003.9
20260506001655 15 336 0.0 0.0 0.00 0.00 0.00 62 1003.9
20260506000109 15 284 0.0 0.0 0.00 0.00 0.00 61 1004.0
20260505234543 15 329 0.0 0.0 0.00 0.00 0.00 60 1004.1
20260505233003 16 350 0.0 0.0 0.00 0.00 0.00 59 1004.2
20260505231558 16 5 0.0 0.0 0.00 0.00 0.00 58 1004.3
20260505230051 16 339 0.0 0.0 0.00 0.00 0.00 57 1004.7
20260505224546 16 342 0.0 0.0 0.00 0.00 0.00 57 1003.3
20260505223037 16 309 0.0 0.0 0.00 0.00 0.00 57 1003.3
20260505221523 17 344 0.0 0.0 0.00 0.00 0.00 56 1003.4
20260505220103 17 340 0.0 0.0 0.00 0.00 0.00 55 1003.4
20260505214546 17 309 0.0 0.0 0.00 0.00 0.00 54 1003.6
20260505213001 17 13 0.0 0.0 0.00 0.00 0.00 53 1003.5
20260505211658 17 307 0.0 0.0 0.00 0.00 0.00 52 1003.4
20260505210046 18 301 0.0 0.0 0.00 0.00 0.00 52 1003.6
20260505204553 18 5 0.0 0.0 0.00 0.00 0.00 51 1003.7
20260505203030 18 340 0.0 0.0 0.00 0.00 0.00 50 1003.6
20260505201521 18 319 0.0 0.0 0.00 0.00 0.00 46 1003.5
20260505200008 18 186 0.0 0.0 0.00 0.00 0.00 43 1003.4
20260505194600 19 186 0.0 0.0 0.00 0.00 0.00 41 1003.4
20260505193050 19 186 0.0 0.0 0.00 0.00 0.00 39 1003.2
20260505191543 20 53 0.0 0.0 0.00 0.00 0.00 38 1003.1
20260505190030 21 303 0.0 0.0 0.00 0.00 0.00 34 1002.8
20260505184529 21 316 0.0 0.0 0.00 0.00 0.00 33 1002.7
20260505183016 21 299 0.0 0.0 0.00 0.00 0.00 34 1002.7
20260505181507 21 302 0.0 0.0 0.00 0.00 0.00 33 1002.7